Regional Weather Roundup
Issued by NWS

Home | Current Version | Previous Version | Graphics & Text | Print | Product List | Glossary On
Versions: 1 2 3 4 5 6 7 8 9 10 11 12 13 14 15 16 17 18 19 20 21 22 23 24 25 26 27 28 29 30 31 32 33 34 35 36 37 38 39 40 41 42 43 44 45 46 47 48 49 50
000
ASUS45 KPSR 051710
RWRAZ

ARIZONA HOURLY REGIONAL WEATHER ROUNDUP
NATIONAL WEATHER SERVICE PHOENIX AZ
1000 AM MST SUN JUL 05 2015

NOTE: FAIR INDICATES FEW OR NO CLOUDS BELOW 12,000 FEET WITH NO
SIGNIFICANT WEATHER AND/OR OBSTRUCTIONS TO VISIBILITY.

AZZ001>003-036-051800-
NORTHWEST ARIZONA

CITY           SKY/WX    TMP DP  RH WIND       PRES   REMARKS
BULLHEAD CITY  PTSUNNY   99  55  23 SW10      29.84F
KINGMAN        MOSUNNY   91  49  23 SW14      30.04S
$$

AZZ004>008-015-016-018-051800-
NORTH CENTRAL ARIZONA

CITY           SKY/WX    TMP DP  RH WIND       PRES   REMARKS
GRAND CANYON   SUNNY     76  52  43 VRB5      30.27F
WILLIAMS       SUNNY     75  54  46 W13G21    30.35S
PRESCOTT       MOSUNNY   83  53  35 W9        30.17F
FLAGSTAFF      PTSUNNY   72  55  55 SW14      30.31F
PAYSON         CLOUDY    75  57  53 CALM      30.22S
PAGE           SUNNY     86  48  26 VRB3      30.05F
$$

AZZ009>014-017-051800-
NORTHEAST ARIZONA

CITY           SKY/WX    TMP DP  RH WIND       PRES   REMARKS
WINSLOW        CLOUDY    76  62  62 SE3       30.16F
SAINT JOHNS    PTSUNNY   74  55  51 VRB6      30.21S
WINDOW ROCK    CLOUDY    72  57  59 SW8       30.26F
SHOW LOW       CLOUDY    72  54  53 W9        30.28S
$$

AZZ023-051800-
GREATER PHOENIX AREA

CITY           SKY/WX    TMP DP  RH WIND       PRES   REMARKS
PHOENIX        PTSUNNY   96  60  30 VRB5      29.91S
BUCKEYE        SUNNY     93  59  31 S5        29.92F
GLENDALE       MOSUNNY   95  57  28 S9        29.93S
LUKE AFB       MOSUNNY   95  59  30 S10G20    29.90F
DEER VALLEY    MOSUNNY   93  58  30 SW8       29.93F
SCOTTSDALE     MOSUNNY   93  57  29 W3        29.95S
MESA-FALCON    PTSUNNY   91  59  33 W6        29.94S
MESA-GATEWAY   PTSUNNY   93  59  31 VRB5      29.96R
CHANDLER       MOSUNNY   95  59  30 VRB6      29.93S
$$

AZZ027-028-051800-
SOUTHWEST MARICOPA COUNTY AND PINAL COUNTY

CITY           SKY/WX    TMP DP  RH WIND       PRES   REMARKS
CASA GRANDE    MOSUNNY   91  61  35 SW6       29.94S
GILA BEND      FAIR      97  59  28 SW10      29.89S
$$

AZZ503-504-507>509-051800-
SOUTHEAST ARIZONA

CITY           SKY/WX    TMP DP  RH WIND       PRES   REMARKS
TUCSON         CLOUDY    84  63  49 S9        30.06S
DAVIS-MONTHAN  PTSUNNY   82  65  55 S10       30.05S
RYAN FIELD     SUNNY     88  63  42 S6        30.04S
NOGALES        CLOUDY    77  61  57 S9        30.15S
SIERRA VISTA   CLOUDY    73  59  61 S9        30.20S
DOUGLAS        CLOUDY    72  63  73 CALM      30.17R
SAFFORD        CLOUDY    83  60  45 NW8       30.05S
$$

AZZ020-021-025-026-031-051800-
SOUTHWEST ARIZONA

CITY           SKY/WX    TMP DP  RH WIND       PRES   REMARKS
YUMA           SUNNY     96  70  42 S17       29.85S HX 102
$$

CAZ031-033-041-043-047-048-061-051800-
SOUTHERN CALIFORNIA

CITY           SKY/WX    TMP DP  RH WIND       PRES   REMARKS
DOWNTOWN L.A.  CLOUDY    68  59  73 CALM      29.98S
L.A. AIRPORT   CLOUDY    65  60  84 W5        29.99S
SAN DIEGO      CLOUDY    69  59  70 VRB5      30.01S
BURBANK        CLOUDY    67  58  72 SE5       29.98S HAZE
ONTARIO        CLOUDY    67  59  75 CALM      29.99S HAZE
RIVERSIDE      CLOUDY    68  59  73 CALM      29.99S HAZE
PALM SPRINGS   MOSUNNY   93  59  31 VRB7      29.87S
EL CENTRO NAS  SUNNY     92  70  48 SE5       29.83F
IMPERIAL       SUNNY     91  72  53 CALM      29.81S
BLYTHE         SUNNY     95  60  31 S13       29.85S
NEEDLES        SUNNY    102  46  15 SW16      29.85F
$$

NVZ020-UTZ003-051800-
SOUTHERN NEVADA-UTAH

CITY           SKY/WX    TMP DP  RH WIND       PRES   REMARKS
LAS VEGAS      MOSUNNY   96  45  17 SW6       29.87F
SALT LAKE CITY CLOUDY    75  65  70 VRB6      30.05S
$$

NMZ009-TXZ055-051800-
NEW MEXICO-WEST TEXAS

CITY           SKY/WX    TMP DP  RH WIND       PRES   REMARKS
ALBUQUERQUE    PTSUNNY   79  56  45 VRB5      30.15F
EL PASO        PTSUNNY   82  61  48 SW7       30.08S
$$


........................KEY........................
SKY/WX - SKY CONDITION/WEATHER
TMP    - TEMPERATURE IN FAHRENHEIT
DP     - DEW POINT IN FAHRENHEIT
RH     - RELATIVE HUMIDITY IN PERCENT
WIND   - DIRECTION AND SPEED IN MILES PER HOUR (MPH)
VRB    - VARIABLE WIND DIRECTION
PRES   - MEAN SEA LEVEL PRESSURE IN INCHES OF MERCURY
         F - FALLING PRESSURE   R - RISING PRESSURE
         S - STEADY PRESSURE
VSB    - VISIBILITY IN MILES
HX     - HEAT INDEX IN FAHRENHEIT
WCI    - WIND CHILL INDEX IN FAHRENHEIT
TC     - TEMPERATURE IN CELSIUS WHICH IS ALSO KNOWN AS
         TEMPERATURE IN CENTIGRADE
AFB    - AIR FORCE BASE
         LUKE AFB IS LUKE AIR FORCE BASE
         DAVIS-MONTHAN IS DAVIS-MONTHAN AIR FORCE BASE
NAS    - NAVAL AIR STATION
         EL CENTRO NAS IS EL CENTRO NAVAL AIR STATION
N/A    - NOT AVAILABLE




USA.gov is the U.S. government's official web portal to all federal, state and local government web resources and services.